Springfield, MO

4:41 AM CST on December 10, 2019 (GMT -0600)
Springfield-Branson Regional

Weather History for KSGF - October, 2019

Change the Weather History Date:

Tuesday, October 8, 2019

  Actual Average Record
Temperature  
Mean Temperature 58 °F 60 °F  
Max Temperature 72 °F 72 °F 92 °F (1979)
Min Temperature 44 °F 49 °F 25 °F (2000)
Degree Days  
Heating Degree Days 7 6  
Month to date heating degree days 19 43  
Since 1 July heating degree days 19 98  
Cooling Degree Days 0 1  
Month to date cooling degree days 37 14  
Year to date cooling degree days 1687 1373  
Growing Degree Days 8 (Base 50)    
Moisture  
Dew Point 43 °F    
Average Humidity 59    
Maximum Humidity 83    
Minimum Humidity 35    
Precipitation  
Precipitation 0.00 in 0.12 in 4.50 in (2009)
Month to date precipitation 1.10 0.98  
Year to date precipitation 42.79 35.70  
Snow  
Snow 0.00 in - - ()
Month to date snowfall 0.0  
Since 1 July snowfall 0.0  
Since 1 September snowfall 0.0  
Snow Depth 0.00 in    
Sea Level Pressure  
Sea Level Pressure 30.13 in    
Wind  
Wind Speed 7 mph (SSE)    
Max Wind Speed 15 mph    
Max Gust Speed 21 mph    
Visibility 10 miles    
Events      
T = Trace of Precipitation, MM = Missing Value Source: NWS Daily Summary

Daily Weather History Graph

Daily Weather History Graph

Search for Another Location

Airport or City:

Astronomy

Oct. 08, 2019 Rise Set
Actual Time 7:14 AM CDT 6:46 PM CDT
Civil Twilight 6:48 AM CDT 7:12 PM CDT
Nautical Twilight 6:18 AM CDT 7:42 PM CDT
Astronomical Twilight 5:48 AM CDT 8:13 PM CDT
Moon 4:38 PM CDT (10/8) 2:13 AM CDT (10/8)
Length of Visible Light 12h 23m
Length of Day
11h 31m
Waxing Gibbous, 78% of the Moon is Illuminated
Oct 8
Waxing Gibbous
Oct 13
Full
Oct 21
Last Quarter
Oct 27
New
Nov 4
First Quarter

Hourly Weather History & Observations

Time (CDT) Temp. Windchill Dew Point Humidity Pressure Visibility Wind Dir Wind Speed Gust Speed Precip Events Conditions
12:52 AM 52.0 °F - 42.1 °F 69% 30.18 in 10.0 mi Calm Calm - N/A   Clear
1:52 AM 51.1 °F - 42.1 °F 71% 30.18 in 10.0 mi ESE 3.5 mph - N/A   Clear
2:52 AM 51.1 °F - 41.0 °F 68% 30.17 in 10.0 mi Calm Calm - N/A   Clear
3:52 AM 48.0 °F - 42.1 °F 80% 30.17 in 10.0 mi SSE 4.6 mph - N/A   Clear
4:52 AM 46.9 °F - 39.9 °F 77% 30.17 in 10.0 mi SSE 5.8 mph - N/A   Clear
5:52 AM 46.0 °F 43.9 °F 39.9 °F 79% 30.18 in 10.0 mi SSE 4.6 mph - N/A   Clear
6:52 AM 45.0 °F 43.5 °F 39.9 °F 82% 30.19 in 10.0 mi SSE 3.5 mph - N/A   Clear
7:52 AM 46.9 °F - 41.0 °F 80% 30.19 in 10.0 mi Calm Calm - N/A   Clear
8:52 AM 53.1 °F - 44.1 °F 71% 30.20 in 10.0 mi SSE 6.9 mph - N/A   Clear
9:52 AM 59.0 °F - 46.0 °F 62% 30.20 in 10.0 mi SSE 6.9 mph - N/A   Clear
10:52 AM 66.0 °F - 46.9 °F 50% 30.19 in 10.0 mi South 9.2 mph - N/A   Clear
11:52 AM 68.0 °F - 44.1 °F 42% 30.17 in 10.0 mi South 9.2 mph - N/A   Clear
12:52 PM 69.1 °F - 41.0 °F 36% 30.15 in 10.0 mi South 6.9 mph 20.7 mph N/A   Clear
1:52 PM 70.0 °F - 43.0 °F 38% 30.11 in 10.0 mi SSE 10.4 mph 16.1 mph N/A   Clear
2:52 PM 70.0 °F - 42.1 °F 36% 30.08 in 10.0 mi SSW 10.4 mph - N/A   Clear
3:52 PM 71.1 °F - 42.1 °F 35% 30.06 in 10.0 mi SE 6.9 mph - N/A   Clear
4:52 PM 71.1 °F - 44.1 °F 38% 30.05 in 10.0 mi SSE 8.1 mph - N/A   Clear
5:52 PM 69.1 °F - 43.0 °F 39% 30.04 in 10.0 mi South 9.2 mph - N/A   Clear
6:52 PM 62.1 °F - 44.1 °F 52% 30.05 in 10.0 mi SSE 5.8 mph - N/A   Clear
7:52 PM 57.0 °F - 45.0 °F 64% 30.05 in 10.0 mi SSE 5.8 mph - N/A   Clear
8:52 PM 57.0 °F - 44.1 °F 62% 30.05 in 10.0 mi SE 5.8 mph - N/A   Clear
9:52 PM 52.0 °F - 43.0 °F 71% 30.05 in 10.0 mi SE 6.9 mph - N/A   Clear
10:52 PM 54.0 °F - 44.1 °F 69% 30.04 in 10.0 mi SE 9.2 mph - N/A   Clear
11:52 PM 57.9 °F - 45.0 °F 62% 30.03 in 10.0 mi SE 12.7 mph - N/A   Clear